sat.trackr.live / text

‹ back to catalog

ONEWEB-0546

NORAD 56048 · 2023-043C

PAYLOAD ACTIVE UNKNOWN

§ Identity

Operator
Country
UK
Launch date
2023-03-26
Launch site
SRILR
Launch vehicle
Mass (kg)
RCS (m²)

Purposes: comms

External: N2YO · Heavens-Above · Gunter

§ Orbital elements

Epoch: 2026-09-20T04:07:22.973088Z

Period
109.37 min
Inclination
87.9157°
Eccentricity
0.0001824
Mean motion
13.16595774 rev/d
Perigee alt
1,196.4 km
Apogee alt
1,199.1 km
Semi-major
7,575.9 km
B*
5.0222e-5
RAAN
209.9161°
Arg perigee
98.2861°
Mean anomaly
261.8476°
Rev number
17,146

§ Raw data

ONEWEB-05461 56048U 23043C   26263.17179367  .00000032  00000+0  50222-4 0  99942 56048  87.9157 209.9161 0001824  98.2861 261.8476 13.16595774171460

JSON: /api/v1/satellites/56048 · /tle

For live sub-satellite position, see the globe view (requires WebGL).

§ Visibility from observer

Set your observer location to see the next 7 days of passes ≥ 10°. The values pass through the URL so the page stays shareable.

No JS? Fill the form by hand. The geolocation button needs JavaScript.